Regional Weather Roundup
Issued by NWS Huntsville, AL

Home | Current Version | Previous Version | Text Only | Print | Product List | Glossary On
Versions: 1 2 3 4 5 6 7 8 9 10 11 12 13 14 15 16 17 18 19 20 21 22 23 24 25 26 27 28 29 30 31 32 33 34 35 36 37 38 39 40 41 42 43 44 45 46 47 48 49 50
000
ASUS44 KHUN 232110
RWRHUN

WEATHER ROUNDUP FOR THE TENNESSEE VALLEY
NATIONAL WEATHER SERVICE HUNTSVILLE AL
400 PM CDT TUE SEP 23 2014

ALZ001>004-232200-
NORTHWEST ALABAMA

CITY           SKY/WX    TMP DP  RH WIND       PRES   REMARKS
COURTLAND HCN    N/A     79 N/A N/A E8          N/A
RUSSELLVILLE     N/A     79 N/A N/A MISG        N/A
SHOALS AIRPORT SUNNY     81  51  35 VRB5      30.17F
SHOALS TVA RES   N/A     81 N/A N/A MISG        N/A
$$

ALZ005>007-016-232200-
NORTH CENTRAL ALABAMA

CITY           SKY/WX    TMP DP  RH WIND       PRES   REMARKS
CULLMAN AG STN   N/A     79 N/A N/A E6          N/A
DECATUR AP     SUNNY     82  50  32 NE10      30.16F
HUNTSVILLE AP  MOSUNNY   84  50  30 CALM      30.16F
HUN NWS/UAH      N/A     80  49  33 N5          N/A
MERIDIANVILLE  SUNNY     81  37  21 E5        30.17S
VINEMONT AP    FAIR      80  51  36 NE7       30.18F
$$

ALZ008>010-232200-
NORTHEAST ALABAMA

CITY           SKY/WX    TMP DP  RH WIND       PRES   REMARKS
ALBERTVILLE    SUNNY     79  59  50 SE3       30.16F
FORT PAYNE     MOSUNNY   79  45  29 E7        30.17S
SCOTTSBORO AP  SUNNY     79  54  41 N6        30.18S
SCOTTSBORO HCN   N/A     79 N/A N/A MISG        N/A
VALLEY HEAD      N/A     77 N/A N/A MISG        N/A
$$

TNZ076-096-097-232200-
SOUTHEASTERN MIDDLE TENNESSEE

CITY           SKY/WX    TMP DP  RH WIND       PRES   REMARKS
FAYETTEVILLE   SUNNY     77  50  38 NE9       30.18F
TULLAHOMA      SUNNY     77  50  38 NE5       30.20F
WINCHESTER     MOSUNNY   77  55  47 NE6       30.19S
$$

...SURROUNDING SITES...

CITY           SKY/WX    TMP DP  RH WIND       PRES   REMARKS
ATLANTA        MOSUNNY   73  55  53 E15       30.18S
ANNISTON       MOSUNNY   80  54  40 NE13G22   30.14S
BIRMINGHAM     SUNNY     81  51  35 NE9       30.15F
CHATTANOOGA    MOSUNNY   77  52  41 VRB3      30.19F
CORINTH        FAIR      81  50  34 NE9       30.15F
DALTON         MOSUNNY   77  57  50 CALM      30.18F
GADSDEN        SUNNY     81  52  36 NE13      30.15S
GOLDEN TRNGL   SUNNY     81  55  41 E5        30.12F
HALEYVILLE     FAIR      82  52  35 NE6       30.18F
JACKSON TN     SUNNY     79  46  31 E10       30.19F
LEWISBURG      FAIR      78  42  27 E3        30.19F
MEMPHIS        MOSUNNY   81  43  26 E10       30.17F
MURFREESBORO   FAIR      76  45  33 NE7       30.20F
NASHVILLE      SUNNY     77  47  34 NE9       30.21F
OXFORD MS      FAIR      77  50  38 NE7       30.16F
ROME           MOSUNNY   77  54  44 NE9       30.16F
SAVANNAH       SUNNY     82  52  34 N8        30.17F
TUPELO         SUNNY     80  54  40 NE8       30.14F
TUSCALOOSA     SUNNY     87  51  28 NE14      30.10F
$$

...GULF COAST WEATHER...

CITY           SKY/WX    TMP DP  RH WIND       PRES   REMARKS
GULFPORT       SUNNY     86  55  34 NE8       30.03F
PASCAGOULA     SUNNY     85  59  41 NE10      30.03F
MOBILE         MOSUNNY   84  52  33 NE16      30.05F
GULF SHORES    PTCLDY    80  65  59 E9        30.04S
PENSACOLA      MOSUNNY   80  66  62 E12       30.03F
DESTIN         SUNNY     81  67  62 NE8       30.03F
PANAMA CITY    MOSUNNY   85  71  61 NE9       30.01F HX  90
APPALACHICOLA  SUNNY     83  69  62 E13G21    30.00S
$$



USA.gov is the U.S. government's official web portal to all federal, state and local government web resources and services.